{"data":{"norad_id":82597,"intl_designator":"","name":"UNKNOWN","alt_names":[],"object_type":"UNKNOWN","status":"UNKNOWN","operator":null,"country":null,"launch_date":null,"launch_site_code":null,"launch_vehicle":null,"mission":null,"orbit_class":"UNKNOWN","rcs_meters":null,"size_class":null,"mass_kg":null,"dimensions":null,"purposes":[],"wikipedia_slug":null,"has_3d_model":false,"image_url":null,"decayed_at":null,"tle_current":{"epoch":"2026-05-24T02:51:10.723968Z","epoch_age_seconds":148398,"freshness":"FRESH","line1":"1 82597U          26144.11887412  .00000843  00000+0  30235-3 0  9990","line2":"2 82597  66.7691  80.1806 0093303 193.4132 166.4489 14.36360985652299","mean_motion":14.36360985,"eccentricity":0.0093303,"inclination_deg":66.7691,"raan_deg":80.1806,"arg_perigee_deg":193.4132,"mean_anomaly_deg":166.4489,"bstar":0.00030235,"rev_number":65229,"period_min":100.25334961322,"perigee_km":703.8477630689,"apogee_km":837.24649815661,"semimajor_km":7148.6841306128,"source":"CELESTRAK","updated_at":"2026-05-25T13:38:11.191878Z"}}}